| time (UTC) | temp F | wind direction | speed MPH | gust MPH | rain 1hr in | rain 24hr in | rain mn in | humidity % | barometer mb |
| 20260831203007 | 87 | 226 | 2.0 | 9.0 | 0.00 | 0.00 | 0.00 | 75 | 1015.0 |
| 20260831201600 | 84 | 220 | 5.0 | 9.0 | 0.00 | 0.00 | 0.00 | 78 | 1015.3 |
| 20260831200054 | 81 | 200 | 3.0 | 8.0 | 0.00 | 0.00 | 0.00 | 80 | 1015.7 |
| 20260831194555 | 80 | 214 | 3.0 | 6.0 | 0.00 | 0.00 | 0.00 | 82 | 1015.7 |
| 20260831193047 | 80 | 222 | 3.0 | 8.0 | 0.00 | 0.00 | 0.00 | 79 | 1015.8 |
| 20260831191545 | 80 | 221 | 1.0 | 6.0 | 0.00 | 0.00 | 0.00 | 79 | 1016.5 |
| 20260831190042 | 80 | 205 | 4.0 | 7.0 | 0.00 | 0.00 | 0.00 | 79 | 1016.4 |
| 20260831184540 | 81 | 197 | 3.0 | 6.0 | 0.00 | 0.00 | 0.00 | 79 | 1016.7 |
| 20260831183037 | 81 | 233 | 5.0 | 12.0 | 0.00 | 0.00 | 0.00 | 79 | 1016.8 |
| 20260831181537 | 81 | 231 | 2.0 | 9.0 | 0.00 | 0.00 | 0.00 | 79 | 1017.4 |
| 20260831180033 | 81 | 156 | 4.0 | 13.0 | 0.00 | 0.00 | 0.00 | 79 | 1017.1 |
| 20260831174530 | 80 | 208 | 5.0 | 10.0 | 0.00 | 0.00 | 0.00 | 81 | 1017.2 |
| 20260831173025 | 80 | 158 | 3.0 | 6.0 | 0.00 | 0.00 | 0.00 | 80 | 1017.4 |
| 20260831171526 | 80 | 202 | 0.0 | 5.0 | 0.00 | 0.00 | 0.00 | 81 | 1017.9 |
| 20260831170026 | 80 | 242 | 1.0 | 6.0 | 0.00 | 0.00 | 0.00 | 81 | 1018.1 |
| 20260831164522 | 80 | 243 | 3.0 | 7.0 | 0.00 | 0.00 | 0.00 | 79 | 1018.2 |
| 20260831163016 | 81 | 176 | 3.0 | 9.0 | 0.00 | 0.00 | 0.00 | 77 | 1017.9 |
| 20260831161518 | 81 | 233 | 5.0 | 12.0 | 0.00 | 0.00 | 0.00 | 77 | 1018.0 |
| 20260831160016 | 81 | 245 | 4.0 | 10.0 | 0.00 | 0.00 | 0.00 | 77 | 1017.9 |
| 20260831154510 | 81 | 234 | 3.0 | 9.0 | 0.00 | 0.00 | 0.00 | 78 | 1017.9 |
| 20260831153105 | 80 | 214 | 2.0 | 10.0 | 0.00 | 0.00 | 0.00 | 79 | 1017.8 |
| 20260831151607 | 79 | 181 | 4.0 | 10.0 | 0.00 | 0.00 | 0.00 | 80 | 1017.9 |
| 20260831150100 | 78 | 176 | 2.0 | 8.0 | 0.00 | 0.00 | 0.00 | 80 | 1017.8 |
| 20260831144557 | 78 | 173 | 0.0 | 11.0 | 0.00 | 0.00 | 0.00 | 80 | 1017.8 |
| 20260831143111 | 79 | 189 | 4.0 | 10.0 | 0.00 | 0.00 | 0.00 | 79 | 1017.9 |
| 20260831141554 | 78 | 195 | 3.0 | 11.0 | 0.00 | 0.00 | 0.00 | 79 | 1017.7 |
| 20260831140050 | 78 | 229 | 5.0 | 10.0 | 0.00 | 0.00 | 0.00 | 78 | 1017.7 |
| 20260831134543 | 78 | 167 | 2.0 | 8.0 | 0.00 | 0.00 | 0.00 | 78 | 1017.7 |
| 20260831133036 | 77 | 163 | 1.0 | 6.0 | 0.00 | 0.00 | 0.00 | 81 | 1017.6 |
| 20260831131533 | 76 | 187 | 2.0 | 5.0 | 0.00 | 0.00 | 0.00 | 81 | 1017.7 |
| 20260831130028 | 76 | 193 | 1.0 | 7.0 | 0.00 | 0.00 | 0.00 | 82 | 1017.6 |
| 20260831124523 | 75 | 191 | 2.0 | 9.0 | 0.00 | 0.00 | 0.00 | 82 | 1017.4 |
| 20260831123023 | 74 | 207 | 3.0 | 9.0 | 0.00 | 0.00 | 0.00 | 83 | 1017.3 |
| 20260831121516 | 73 | 182 | 2.0 | 7.0 | 0.00 | 0.00 | 0.00 | 85 | 1017.2 |
| 20260831120016 | 72 | 210 | 1.0 | 6.0 | 0.00 | 0.00 | 0.00 | 86 | 1017.1 |
| 20260831114512 | 72 | 195 | 0.0 | 5.0 | 0.00 | 0.00 | 0.00 | 86 | 1017.2 |
| 20260831113013 | 72 | 198 | 1.0 | 4.0 | 0.00 | 0.00 | 0.00 | 87 | 1017.1 |
| 20260831111608 | 72 | 203 | 1.0 | 4.0 | 0.00 | 0.00 | 0.00 | 87 | 1017.3 |
| 20260831110005 | 72 | 227 | 2.0 | 5.0 | 0.00 | 0.00 | 0.00 | 87 | 1016.9 |
| 20260831104509 | 72 | 191 | 1.0 | 5.0 | 0.00 | 0.00 | 0.00 | 87 | 1016.9 |
| 20260831103001 | 72 | 142 | 1.0 | 5.0 | 0.00 | 0.00 | 0.00 | 87 | 1017.0 |
| 20260831101607 | 72 | 156 | 2.0 | 6.0 | 0.00 | 0.00 | 0.00 | 87 | 1016.8 |
| 20260831100058 | 72 | 202 | 2.0 | 5.0 | 0.00 | 0.00 | 0.00 | 87 | 1016.8 |
| 20260831094556 | 72 | 131 | 1.0 | 3.0 | 0.00 | 0.00 | 0.00 | 87 | 1016.7 |
| 20260831093058 | 72 | 144 | 1.0 | 4.0 | 0.00 | 0.00 | 0.00 | 87 | 1016.9 |
| 20260831091558 | 72 | 165 | 1.0 | 5.0 | 0.00 | 0.00 | 0.00 | 88 | 1016.9 |
| 20260831090049 | 72 | 157 | 1.0 | 3.0 | 0.00 | 0.00 | 0.00 | 88 | 1016.8 |
| 20260831084550 | 72 | 136 | 0.0 | 4.0 | 0.00 | 0.00 | 0.00 | 87 | 1016.8 |
| 20260831083046 | 72 | 127 | 3.0 | 7.0 | 0.00 | 0.00 | 0.00 | 88 | 1016.5 |
| 20260831081540 | 72 | 136 | 2.0 | 5.0 | 0.00 | 0.00 | 0.00 | 87 | 1016.7 |
| 20260831080038 | 73 | 103 | 0.0 | 3.0 | 0.00 | 0.00 | 0.00 | 87 | 1016.8 |
| 20260831074536 | 73 | 110 | 1.0 | 4.0 | 0.00 | 0.00 | 0.00 | 88 | 1016.8 |
| 20260831073033 | 73 | 93 | 1.0 | 4.0 | 0.00 | 0.00 | 0.00 | 87 | 1017.0 |
| 20260831071629 | 73 | 124 | 1.0 | 4.0 | 0.00 | 0.00 | 0.00 | 87 | 1017.1 |
| 20260831070028 | 73 | 134 | 0.0 | 3.0 | 0.00 | 0.00 | 0.00 | 88 | 1017.1 |
| 20260831064531 | 73 | 108 | 1.0 | 5.0 | 0.00 | 0.00 | 0.00 | 88 | 1017.1 |
| 20260831063023 | 73 | 128 | 1.0 | 4.0 | 0.00 | 0.00 | 0.00 | 88 | 1017.0 |
| 20260831061621 | 73 | 88 | 0.0 | 2.0 | 0.00 | 0.00 | 0.00 | 88 | 1017.2 |
| 20260831060016 | 74 | 127 | 0.0 | 2.0 | 0.00 | 0.00 | 0.00 | 87 | 1017.5 |
| 20260831054516 | 74 | 113 | 1.0 | 5.0 | 0.00 | 0.00 | 0.00 | 87 | 1017.4 |
| 20260831053013 | 74 | 134 | 0.0 | 1.0 | 0.00 | 0.00 | 0.00 | 87 | 1017.6 |
| 20260831051513 | 74 | 137 | 0.0 | 4.0 | 0.00 | 0.00 | 0.00 | 87 | 1017.4 |
| 20260831050008 | 74 | 95 | 1.0 | 5.0 | 0.00 | 0.00 | 0.00 | 87 | 1017.3 |
| 20260831044506 | 74 | 129 | 0.0 | 5.0 | 0.00 | 0.00 | 0.00 | 87 | 1017.2 |
| 20260831043002 | 74 | 122 | 2.0 | 4.0 | 0.00 | 0.00 | 0.00 | 86 | 1017.2 |
| 20260831041614 | 74 | 115 | 2.0 | 4.0 | 0.00 | 0.00 | 0.00 | 86 | 1017.3 |
| 20260831040057 | 75 | 105 | 2.0 | 4.0 | 0.00 | 0.00 | 0.00 | 86 | 1017.2 |
| 20260831034554 | 75 | 94 | 1.0 | 3.0 | 0.00 | 0.00 | 0.00 | 86 | 1017.2 |
| 20260831033052 | 75 | 132 | 2.0 | 5.0 | 0.00 | 0.00 | 0.00 | 86 | 1017.0 |
| 20260831031552 | 75 | 110 | 1.0 | 4.0 | 0.00 | 0.00 | 0.00 | 86 | 1017.1 |
| 20260831030052 | 76 | 129 | 1.0 | 4.0 | 0.00 | 0.00 | 0.00 | 85 | 1017.4 |
| 20260831024548 | 76 | 153 | 1.0 | 5.0 | 0.00 | 0.00 | 0.00 | 84 | 1017.3 |
| 20260831023046 | 76 | 128 | 2.0 | 5.0 | 0.00 | 0.00 | 0.00 | 84 | 1017.3 |
| 20260831021543 | 76 | 122 | 2.0 | 5.0 | 0.00 | 0.00 | 0.00 | 84 | 1017.3 |
| 20260831020042 | 76 | 135 | 2.0 | 4.0 | 0.00 | 0.00 | 0.00 | 83 | 1017.1 |
| 20260831014540 | 76 | 150 | 1.0 | 5.0 | 0.00 | 0.00 | 0.00 | 83 | 1017.2 |
| 20260831013040 | 76 | 143 | 2.0 | 4.0 | 0.00 | 0.00 | 0.00 | 82 | 1017.0 |
| 20260831011539 | 77 | 122 | 2.0 | 4.0 | 0.00 | 0.00 | 0.00 | 82 | 1016.9 |
| 20260831010035 | 77 | 149 | 1.0 | 2.0 | 0.00 | 0.00 | 0.00 | 81 | 1016.8 |
| 20260831004535 | 78 | 151 | 0.0 | 1.0 | 0.00 | 0.00 | 0.00 | 79 | 1016.8 |
| 20260831003132 | 78 | 153 | 0.0 | 3.0 | 0.00 | 0.00 | 0.00 | 78 | 1016.6 |
| 20260831001527 | 79 | 164 | 0.0 | 2.0 | 0.00 | 0.00 | 0.00 | 77 | 1016.6 |
| 20260831000025 | 79 | 200 | 0.0 | 1.0 | 0.00 | 0.00 | 0.00 | 76 | 1016.9 |
| 20260830234523 | 80 | 199 | 0.0 | 2.0 | 0.00 | 0.00 | 0.00 | 74 | 1017.1 |
| 20260830233022 | 80 | 221 | 0.0 | 4.0 | 0.00 | 0.00 | 0.00 | 73 | 1017.2 |
| 20260830231519 | 81 | 228 | 2.0 | 4.0 | 0.00 | 0.00 | 0.00 | 71 | 1017.2 |
| 20260830230017 | 81 | 235 | 1.0 | 5.0 | 0.00 | 0.00 | 0.00 | 71 | 1017.4 |
| 20260830224515 | 82 | 245 | 0.0 | 6.0 | 0.00 | 0.00 | 0.00 | 71 | 1017.5 |
| 20260830223012 | 82 | 263 | 2.0 | 6.0 | 0.00 | 0.00 | 0.00 | 70 | 1017.6 |
| 20260830221512 | 82 | 257 | 3.0 | 9.0 | 0.00 | 0.00 | 0.00 | 69 | 1017.5 |
| 20260830220009 | 82 | 227 | 2.0 | 9.0 | 0.00 | 0.00 | 0.00 | 69 | 1017.4 |
| 20260830214506 | 82 | 223 | 4.0 | 9.0 | 0.00 | 0.00 | 0.00 | 68 | 1017.2 |
| 20260830213005 | 82 | 212 | 1.0 | 8.0 | 0.00 | 0.00 | 0.00 | 70 | 1017.1 |
| 20260830211501 | 83 | 150 | 7.0 | 13.0 | 0.00 | 0.00 | 0.00 | 67 | 1017.0 |
| 20260830210106 | 83 | 269 | 5.0 | 13.0 | 0.00 | 0.00 | 0.00 | 64 | 1016.9 |
| 20260830204558 | 83 | 252 | 7.0 | 12.0 | 0.00 | 0.00 | 0.00 | 64 | 1016.9 |